TimeCST,TemperatureF,Dew PointF,Humidity,Sea Level PressureIn,VisibilityMPH,Wind Direction,Wind SpeedMPH,Gust SpeedMPH,PrecipitationIn,Events,Conditions,WindDirDegrees,DateUTC
12:14 AM,14.0,3.2,62,30.34,10.0,NW,4.6,-,N/A,,Clear,320,2013-11-27 06:14:00
12:34 AM,14.0,3.2,62,30.34,10.0,NW,4.6,-,N/A,,Clear,310,2013-11-27 06:34:00
12:54 AM,14.0,3.2,62,30.34,10.0,NW,3.5,-,N/A,,Clear,320,2013-11-27 06:54:00
1:14 AM,12.2,3.2,67,30.35,10.0,NW,3.5,-,N/A,,Clear,320,2013-11-27 07:14:00
1:34 AM,12.2,3.2,67,30.35,10.0,NW,3.5,-,N/A,,Clear,310,2013-11-27 07:34:00
1:54 AM,12.2,3.2,67,30.35,10.0,NNW,4.6,-,N/A,,Clear,330,2013-11-27 07:54:00
2:14 AM,12.2,3.2,67,30.35,10.0,NW,4.6,-,N/A,,Clear,320,2013-11-27 08:14:00
2:34 AM,12.2,3.2,67,30.35,10.0,NNW,4.6,-,N/A,,Clear,330,2013-11-27 08:34:00
2:54 AM,12.2,3.2,67,30.35,10.0,NW,4.6,-,N/A,,Clear,320,2013-11-27 08:54:00
3:14 AM,10.4,3.2,73,30.35,10.0,NW,4.6,-,N/A,,Clear,320,2013-11-27 09:14:00
3:34 AM,12.2,3.2,67,30.35,10.0,WNW,4.6,-,N/A,,Clear,300,2013-11-27 09:34:00
3:54 AM,10.4,3.2,73,30.35,10.0,Calm,Calm,-,N/A,,Clear,0,2013-11-27 09:54:00
4:14 AM,10.4,3.2,73,30.34,10.0,WNW,3.5,-,N/A,,Clear,290,2013-11-27 10:14:00
4:34 AM,10.4,1.4,67,30.34,10.0,Calm,Calm,-,N/A,,Clear,0,2013-11-27 10:34:00
4:54 AM,10.4,3.2,73,30.34,10.0,Calm,Calm,-,N/A,,Clear,0,2013-11-27 10:54:00
5:14 AM,10.4,3.2,73,30.34,10.0,NW,3.5,-,N/A,,Clear,310,2013-11-27 11:14:00
5:34 AM,10.4,1.4,67,30.34,10.0,NW,3.5,-,N/A,,Clear,320,2013-11-27 11:34:00
5:54 AM,10.4,3.2,73,30.35,10.0,Calm,Calm,-,N/A,,Clear,0,2013-11-27 11:54:00
6:14 AM,10.4,3.2,73,30.35,10.0,Calm,Calm,-,N/A,,Clear,0,2013-11-27 12:14:00
6:34 AM,10.4,1.4,67,30.34,10.0,Calm,Calm,-,N/A,,Clear,0,2013-11-27 12:34:00
6:54 AM,8.6,1.4,73,30.35,10.0,Calm,Calm,-,N/A,,Clear,0,2013-11-27 12:54:00
7:14 AM,8.6,1.4,73,30.34,10.0,Calm,Calm,-,N/A,,Clear,0,2013-11-27 13:14:00
7:34 AM,8.6,1.4,73,30.34,10.0,Calm,Calm,-,N/A,,Clear,0,2013-11-27 13:34:00
7:51 AM,8.6,1.4,73,30.34,10.0,Calm,Calm,-,N/A,,Clear,0,2013-11-27 13:51:00
8:14 AM,10.4,5.0,79,30.33,10.0,Calm,Calm,-,N/A,,Clear,0,2013-11-27 14:14:00
8:34 AM,12.2,5.0,73,30.33,10.0,Calm,Calm,-,N/A,,Clear,0,2013-11-27 14:34:00
8:54 AM,14.0,6.8,73,30.33,10.0,Calm,Calm,-,N/A,,Clear,0,2013-11-27 14:54:00
9:14 AM,15.8,6.8,68,30.34,10.0,Calm,Calm,-,N/A,,Clear,0,2013-11-27 15:14:00
9:34 AM,17.6,6.8,63,30.33,10.0,Calm,Calm,-,N/A,,Clear,0,2013-11-27 15:34:00
9:54 AM,17.6,6.8,63,30.32,10.0,Calm,Calm,-,N/A,,Clear,0,2013-11-27 15:54:00
10:14 AM,19.4,6.8,58,30.32,10.0,East,3.5,-,N/A,,Clear,100,2013-11-27 16:14:00
10:34 AM,19.4,5.0,54,30.31,10.0,Calm,Calm,-,N/A,,Clear,0,2013-11-27 16:34:00
10:54 AM,21.2,6.8,54,30.30,10.0,South,4.6,-,N/A,,Clear,190,2013-11-27 16:54:00
11:14 AM,21.2,6.8,54,30.29,10.0,South,5.8,-,N/A,,Clear,170,2013-11-27 17:14:00
11:34 AM,23.0,6.8,50,30.27,10.0,SSE,5.8,-,N/A,,Clear,160,2013-11-27 17:34:00
11:54 AM,24.8,5.0,43,30.26,10.0,SSE,8.1,-,N/A,,Scattered Clouds,160,2013-11-27 17:54:00
12:14 PM,24.8,5.0,43,30.24,10.0,SSE,6.9,-,N/A,,Scattered Clouds,150,2013-11-27 18:14:00
12:34 PM,24.8,5.0,43,30.23,10.0,South,5.8,-,N/A,,Clear,180,2013-11-27 18:34:00
12:54 PM,26.6,3.2,37,30.22,10.0,South,9.2,-,N/A,,Clear,180,2013-11-27 18:54:00
1:14 PM,24.8,3.2,40,30.20,10.0,SE,8.1,-,N/A,,Mostly Cloudy,140,2013-11-27 19:14:00
1:34 PM,26.6,3.2,37,30.19,10.0,SSE,9.2,-,N/A,,Overcast,150,2013-11-27 19:34:00
1:54 PM,26.6,1.4,34,30.18,10.0,SSE,8.1,-,N/A,,Scattered Clouds,160,2013-11-27 19:54:00
2:14 PM,26.6,3.2,37,30.17,10.0,SSE,8.1,-,N/A,,Clear,160,2013-11-27 20:14:00
2:34 PM,26.6,1.4,34,30.16,10.0,South,10.4,-,N/A,,Scattered Clouds,180,2013-11-27 20:34:00
2:54 PM,26.6,1.4,34,30.15,10.0,South,9.2,-,N/A,,Mostly Cloudy,170,2013-11-27 20:54:00
3:14 PM,28.4,1.4,31,30.15,10.0,South,9.2,-,N/A,,Mostly Cloudy,170,2013-11-27 21:14:00
3:34 PM,28.4,1.4,31,30.14,10.0,South,9.2,-,N/A,,Mostly Cloudy,180,2013-11-27 21:34:00
3:54 PM,26.6,1.4,34,30.10,10.0,SE,13.8,-,N/A,,Scattered Clouds,140,2013-11-27 21:54:00
4:14 PM,26.6,1.4,34,30.11,10.0,SSE,11.5,-,N/A,,Scattered Clouds,160,2013-11-27 22:14:00
4:34 PM,26.6,1.4,34,30.09,10.0,SSE,12.7,-,N/A,,Scattered Clouds,160,2013-11-27 22:34:00
4:54 PM,24.8,3.2,40,30.09,10.0,SSE,9.2,-,N/A,,Mostly Cloudy,160,2013-11-27 22:54:00
5:14 PM,24.8,3.2,40,30.08,10.0,SSE,11.5,-,N/A,,Scattered Clouds,150,2013-11-27 23:14:00
5:34 PM,24.8,3.2,40,30.07,10.0,SSE,6.9,-,N/A,,Clear,150,2013-11-27 23:34:00
5:52 PM,24.8,3.2,40,30.07,10.0,SE,8.1,-,N/A,,Clear,140,2013-11-27 23:52:00
6:09 PM,24.8,3.2,40,30.06,10.0,SE,9.2,-,N/A,,Clear,130,2013-11-28 00:09:00
6:34 PM,32.0,3.2,30,30.08,10.0,SE,8.1,-,N/A,,Mostly Cloudy,140,2013-11-28 00:34:00
6:54 PM,24.8,3.2,40,30.10,10.0,SSE,5.8,-,N/A,,Scattered Clouds,160,2013-11-28 00:54:00
7:14 PM,24.8,5.0,43,30.10,10.0,SSE,10.4,-,N/A,,Clear,160,2013-11-28 01:14:00
7:34 PM,24.8,6.8,46,30.10,10.0,SSE,11.5,16.1,N/A,,Scattered Clouds,160,2013-11-28 01:34:00
7:54 PM,24.8,6.8,46,30.10,10.0,SSE,10.4,-,N/A,,Scattered Clouds,160,2013-11-28 01:54:00
8:14 PM,24.8,6.8,46,30.10,10.0,SSE,10.4,-,N/A,,Clear,160,2013-11-28 02:14:00
8:34 PM,24.8,6.8,46,30.10,10.0,SSE,10.4,-,N/A,,Mostly Cloudy,160,2013-11-28 02:34:00
8:54 PM,24.8,6.8,46,30.09,10.0,SSE,9.2,-,N/A,,Overcast,160,2013-11-28 02:54:00
9:14 PM,23.0,6.8,50,30.08,10.0,SSE,10.4,-,N/A,,Overcast,150,2013-11-28 03:14:00
9:34 PM,23.0,6.8,50,30.08,10.0,SSE,11.5,-,N/A,,Overcast,150,2013-11-28 03:34:00
9:54 PM,23.0,6.8,50,30.08,10.0,SE,6.9,-,N/A,,Overcast,130,2013-11-28 03:54:00
10:14 PM,23.0,8.6,54,30.07,10.0,SE,9.2,-,N/A,,Overcast,140,2013-11-28 04:14:00
10:34 PM,23.0,8.6,54,30.07,10.0,SE,9.2,-,N/A,,Overcast,130,2013-11-28 04:34:00
10:54 PM,23.0,8.6,54,30.06,10.0,SE,10.4,-,N/A,,Overcast,130,2013-11-28 04:54:00
11:14 PM,23.0,8.6,54,30.06,10.0,SE,8.1,-,N/A,,Overcast,130,2013-11-28 05:14:00
11:34 PM,23.0,8.6,54,30.05,10.0,SE,6.9,-,N/A,,Overcast,130,2013-11-28 05:34:00
11:54 PM,24.8,8.6,50,30.05,10.0,SE,5.8,-,N/A,,Overcast,140,2013-11-28 05:54:00